Torna al catalogo

STARLINK-35620

AttivoComunicazioniVLEO
NORAD 66474·PAYLOAD·🇺🇸 United States

Lanciato Nov 15, 2025 da Cape Canaveral Space Force Station

Loading…

Prossimi Passaggi (prossime 24 ore)

TLE

AggiornatoSource: CelesTrak SupGP

Epoca: Sep 15, 2026, 02:52 UTC

1 66474C 25262U   26258.11993056  .00028760  00000+0  10416-2 0  2585
2 66474  43.0000 306.2121 0001411 260.1722 295.8086 15.27567381    12

Traccia STARLINK-35620 in tempo reale con AllMySat

Download on the App Store